When you browse on this site, cookies collect data to enhance your experience and personalize the content and advertising you see.
Visit our Privacy Policy to learn more. By continuing to use the site, you agree to this use of cookies and data.
  • In Österreich
  • Länderverzeichnis
  • Für 7 Tage
  • Wassertemperatur
  • Satellitenkarten
  • Wetterkarte
  • News
  • Widgets
  • user-avatar
    Anmelden

    Stündliche Wetter Chinsali

    Heute, 21 Mai, Dienstag

    Zeit Temperatur Niederschläge Wind Luftdruck Luftfeuchtigkeit
    00:00 +17°C° 0 mm 2 m/S 647 mmHg 85%
    01:00 +16°C° 0 mm 2 m/S 647 mmHg 87%
    02:00 +16°C° 0 mm 2 m/S 647 mmHg 90%
    03:00 +16°C° 0 mm 2 m/S 647 mmHg 92%
    04:00 +15°C° 0 mm 2 m/S 647 mmHg 93%
    05:00 +15°C° 0 mm 1 m/S 647 mmHg 95%
    06:00 +17°C° 0 mm 2 m/S 647 mmHg 89%
    07:00 +18°C° 0 mm 2 m/S 648 mmHg 83%
    08:00 +20°C° 0 mm 2 m/S 649 mmHg 76%
    09:00 +23°C° 0 mm 2 m/S 649 mmHg 68%
    10:00 +25°C° 0 mm 2 m/S 650 mmHg 60%
    11:00 +27°C° 0 mm 2 m/S 650 mmHg 52%
    12:00 +27°C° 0 mm 2 m/S 649 mmHg 51%
    13:00 +28°C° 0 mm 2 m/S 649 mmHg 49%
    14:00 +28°C° 0 mm 2 m/S 648 mmHg 48%
    15:00 +27°C° 0 mm 2 m/S 648 mmHg 53%
    16:00 +26°C° 0 mm 2 m/S 647 mmHg 59%
    17:00 +25°C° 0 mm 2 m/S 647 mmHg 65%
    18:00 +23°C° 0 mm 2 m/S 647 mmHg 69%
    19:00 +20°C° 0 mm 2 m/S 647 mmHg 73%
    20:00 +19°C° 0 mm 2 m/S 647 mmHg 77%
    21:00 +19°C° 0 mm 2 m/S 647 mmHg 76%
    22:00 +18°C° 0 mm 3 m/S 648 mmHg 75%
    23:00 +18°C° 0 mm 3 m/S 648 mmHg 75%

    Morgen, 22 Mai, Mittwoch

    Zeit Temperatur Niederschläge Wind Luftdruck Luftfeuchtigkeit
    00:00 +18°C° 0 mm 3 m/S 648 mmHg 79%
    01:00 +17°C° 0 mm 3 m/S 647 mmHg 82%
    02:00 +16°C° 0 mm 2 m/S 647 mmHg 86%
    03:00 +16°C° 0 mm 2 m/S 647 mmHg 87%
    04:00 +16°C° 0 mm 2 m/S 647 mmHg 89%
    05:00 +15°C° 0 mm 2 m/S 647 mmHg 90%
    06:00 +17°C° 0 mm 3 m/S 648 mmHg 85%
    07:00 +18°C° 0 mm 3 m/S 648 mmHg 80%
    08:00 +19°C° 0 mm 3 m/S 649 mmHg 75%
    09:00 +21°C° 0 mm 4 m/S 650 mmHg 68%
    10:00 +23°C° 0 mm 4 m/S 650 mmHg 61%
    11:00 +26°C° 0 mm 4 m/S 650 mmHg 53%
    12:00 +27°C° 0 mm 4 m/S 650 mmHg 52%
    13:00 +27°C° 0 mm 4 m/S 649 mmHg 50%
    14:00 +28°C° 0 mm 3 m/S 648 mmHg 49%
    15:00 +26°C° 0 mm 3 m/S 648 mmHg 54%
    16:00 +25°C° 0 mm 3 m/S 647 mmHg 59%
    17:00 +24°C° 0 mm 2 m/S 647 mmHg 65%
    18:00 +21°C° 0 mm 2 m/S 647 mmHg 68%
    19:00 +20°C° 0 mm 2 m/S 647 mmHg 72%
    20:00 +18°C° 0 mm 2 m/S 648 mmHg 76%
    21:00 +18°C° 0 mm 2 m/S 648 mmHg 75%
    22:00 +18°C° 0 mm 3 m/S 648 mmHg 73%
    23:00 +17°C° 0 mm 3 m/S 648 mmHg 72%

    übermorgen, 23 Mai, Donnerstag

    Zeit Temperatur Niederschläge Wind Luftdruck Luftfeuchtigkeit
    00:00 +17°C° 0 mm 3 m/S 648 mmHg 77%
    01:00 +16°C° 0 mm 3 m/S 647 mmHg 82%
    02:00 +14°C° 0 mm 3 m/S 647 mmHg 87%
    03:00 +14°C° 0 mm 3 m/S 647 mmHg 88%
    04:00 +14°C° 0 mm 3 m/S 647 mmHg 88%
    05:00 +14°C° 0 mm 3 m/S 647 mmHg 88%
    06:00 +16°C° 0 mm 3 m/S 648 mmHg 81%
    07:00 +17°C° 0 mm 4 m/S 649 mmHg 74%
    08:00 +18°C° 0 mm 4 m/S 649 mmHg 66%
    09:00 +20°C° 0 mm 4 m/S 650 mmHg 62%
    10:00 +22°C° 0 mm 4 m/S 650 mmHg 58%
    11:00 +25°C° 0 mm 3 m/S 650 mmHg 54%
    12:00 +26°C° 0 mm 3 m/S 650 mmHg 52%
    13:00 +26°C° 0 mm 3 m/S 649 mmHg 49%
    14:00 +27°C° 0 mm 3 m/S 648 mmHg 47%
    15:00 +26°C° 0 mm 3 m/S 648 mmHg 52%
    16:00 +25°C° 0 mm 2 m/S 647 mmHg 57%
    17:00 +23°C° 0 mm 2 m/S 647 mmHg 62%
    18:00 +21°C° 0 mm 2 m/S 647 mmHg 63%
    19:00 +19°C° 0 mm 3 m/S 648 mmHg 64%
    20:00 +18°C° 0 mm 3 m/S 648 mmHg 65%
    21:00 +17°C° 0 mm 3 m/S 648 mmHg 62%
    22:00 +17°C° 0 mm 3 m/S 648 mmHg 60%
    23:00 +16°C° 0 mm 3 m/S 648 mmHg 58%

    24 Mai, Freitag

    Zeit Temperatur Niederschläge Wind Luftdruck Luftfeuchtigkeit
    00:00 +16°C° 0 mm 3 m/S 648 mmHg 58%
    01:00 +16°C° 0 mm 3 m/S 648 mmHg 58%
    02:00 +14°C° 0 mm 3 m/S 647 mmHg 58%
    03:00 +14°C° 0 mm 3 m/S 647 mmHg 62%
    04:00 +14°C° 0 mm 3 m/S 647 mmHg 66%
    05:00 +13°C° 0 mm 3 m/S 647 mmHg 70%
    06:00 +16°C° 0 mm 3 m/S 648 mmHg 69%
    07:00 +17°C° 0 mm 4 m/S 649 mmHg 68%
    08:00 +18°C° 0 mm 4 m/S 650 mmHg 67%
    09:00 +20°C° 0 mm 4 m/S 650 mmHg 62%
    10:00 +22°C° 0 mm 4 m/S 650 mmHg 57%
    11:00 +25°C° 0 mm 4 m/S 650 mmHg 52%
    12:00 +25°C° 0 mm 4 m/S 650 mmHg 50%
    13:00 +26°C° 0 mm 3 m/S 649 mmHg 48%
    14:00 +26°C° 0 mm 3 m/S 649 mmHg 47%
    15:00 +25°C° 0 mm 3 m/S 648 mmHg 52%
    16:00 +24°C° 0 mm 2 m/S 648 mmHg 57%
    17:00 +23°C° 0 mm 2 m/S 648 mmHg 62%
    18:00 +21°C° 0 mm 2 m/S 648 mmHg 66%
    19:00 +19°C° 0 mm 2 m/S 648 mmHg 70%
    20:00 +17°C° 0 mm 2 m/S 648 mmHg 74%
    21:00 +17°C° 0 mm 2 m/S 648 mmHg 74%
    22:00 +17°C° 0 mm 3 m/S 648 mmHg 73%
    23:00 +16°C° 0 mm 3 m/S 648 mmHg 73%

    25 Mai, Samstag

    Zeit Temperatur Niederschläge Wind Luftdruck Luftfeuchtigkeit
    00:00 +16°C° 0 mm 3 m/S 648 mmHg 76%
    01:00 +15°C° 0 mm 2 m/S 647 mmHg 80%
    02:00 +15°C° 0 mm 2 m/S 647 mmHg 84%
    03:00 +15°C° 0 mm 2 m/S 647 mmHg 85%
    04:00 +13°C° 0 mm 3 m/S 648 mmHg 85%
    05:00 +13°C° 0 mm 3 m/S 648 mmHg 86%
    06:00 +16°C° 0 mm 3 m/S 649 mmHg 82%
    07:00 +17°C° 0 mm 4 m/S 649 mmHg 77%
    08:00 +18°C° 0 mm 4 m/S 650 mmHg 73%
    09:00 +20°C° 0 mm 4 m/S 650 mmHg 68%
    10:00 +21°C° 0 mm 4 m/S 650 mmHg 64%
    11:00 +23°C° 0 mm 4 m/S 650 mmHg 59%
    12:00 +23°C° 0 mm 4 m/S 650 mmHg 60%
    13:00 +22°C° 0 mm 4 m/S 649 mmHg 61%
    14:00 +22°C° 0 mm 4 m/S 648 mmHg 62%
    15:00 +22°C° 0 mm 4 m/S 648 mmHg 65%
    16:00 +21°C° 0 mm 4 m/S 648 mmHg 67%
    17:00 +21°C° 0 mm 3 m/S 648 mmHg 70%
    18:00 +20°C° 0 mm 3 m/S 648 mmHg 74%
    19:00 +18°C° 0 mm 3 m/S 648 mmHg 79%
    20:00 +17°C° 0 mm 3 m/S 648 mmHg 83%
    21:00 +17°C° 0 mm 3 m/S 648 mmHg 83%
    22:00 +17°C° 0 mm 3 m/S 648 mmHg 84%
    23:00 +17°C° 0 mm 3 m/S 648 mmHg 84%

    26 Mai, Sonntag

    Zeit Temperatur Niederschläge Wind Luftdruck Luftfeuchtigkeit
    00:00 +16°C° 0 mm 3 m/S 648 mmHg 86%
    01:00 +16°C° 0 mm 3 m/S 648 mmHg 88%
    02:00 +16°C° 0 mm 3 m/S 647 mmHg 90%
    03:00 +14°C° 0 mm 3 m/S 647 mmHg 91%
    04:00 +14°C° 0 mm 3 m/S 647 mmHg 91%
    05:00 +14°C° 0 mm 3 m/S 647 mmHg 92%
    06:00 +16°C° 0 mm 3 m/S 648 mmHg 87%
    07:00 +17°C° 0 mm 4 m/S 648 mmHg 82%
    08:00 +18°C° 0 mm 4 m/S 649 mmHg 76%
    09:00 +20°C° 0 mm 4 m/S 649 mmHg 70%
    10:00 +22°C° 0 mm 4 m/S 649 mmHg 64%
    11:00 +25°C° 0 mm 4 m/S 649 mmHg 57%
    12:00 +25°C° 0 mm 4 m/S 649 mmHg 57%
    13:00 +25°C° 0 mm 4 m/S 648 mmHg 56%
    14:00 +25°C° 0 mm 4 m/S 647 mmHg 56%
    15:00 +24°C° 0 mm 3 m/S 647 mmHg 60%
    16:00 +24°C° 0 mm 3 m/S 647 mmHg 64%
    17:00 +22°C° 0 mm 3 m/S 647 mmHg 68%
    18:00 +20°C° 0 mm 3 m/S 647 mmHg 73%
    19:00 +19°C° 0 mm 3 m/S 647 mmHg 78%
    20:00 +18°C° 0 mm 3 m/S 648 mmHg 83%
    21:00 +18°C° 0 mm 3 m/S 648 mmHg 83%
    22:00 +17°C° 0 mm 3 m/S 648 mmHg 83%
    23:00 +17°C° 0 mm 3 m/S 648 mmHg 83%
    Mehr zeigen